Overview Statistics Trail Chart Weather Telemetry Raw packets
 

This is the latest recevied weather packets stored in our database for station/object KG7FOQ-13. If no packets are shown the sender has not sent any weather packets the latest 10 day(s).

<< 82 83 84 85 86 87 88 >>
Time Temp. Humidity Pressure Rain* Wind** Luminosity Snow
1787999055 14.44° C 86% 1016.9 hPa 0 mm - - -
1787998755 15° C 86% 1016.7 hPa 0 mm - - -
1787998454 15° C 86% 1016.7 hPa 0 mm - - -
1787998154 15.56° C 83% 1016.7 hPa 0 mm - - -
1787997853 15.56° C 82% 1016.7 hPa 0 mm - - -
1787997553 15° C 83% 1016.6 hPa 0 mm - - -
1787997252 15° C 85% 1016.6 hPa 0 mm - - -
1787996952 15° C 85% 1016.9 hPa 0 mm - - -
1787996651 15.56° C 84% 1016.7 hPa 0 mm - - -
1787996351 15.56° C 85% 1016.6 hPa 0 mm - - -
1787996050 15.56° C 86% 1016.5 hPa 0 mm - - -
1787995750 15.56° C 86% 1016.6 hPa 0 mm - - -
1787995449 15° C 86% 1016.6 hPa 0 mm - - -
1787995149 15° C 86% 1016.6 hPa 0 mm - - -
1787994848 15.56° C 86% 1016.7 hPa 0 mm - - -
1787994548 15.56° C 85% 1016.7 hPa 0 mm - - -
1787994247 15.56° C 84% 1016.6 hPa 0 mm - - -
1787993947 15.56° C 85% 1016.6 hPa 0 mm - - -
1787993646 15.56° C 87% 1016.6 hPa 0 mm - - -
1787993345 15.56° C 86% 1016.6 hPa 0 mm - - -
1787993045 16.11° C 85% 1016.6 hPa 0 mm - - -
1787992745 16.11° C 83% 1016.7 hPa 0 mm - - -
1787992444 16.67° C 81% 1016.6 hPa 0 mm - - -
1787992143 17.22° C 79% 1016.7 hPa 0 mm - - -
1787991843 17.22° C 78% 1016.7 hPa 0 mm - - -

* Rain latest hour (hover to see other rain measurements)
** Current wind speed in m/s (hover to see current wind gust speed)